| time (UTC) | temp F | wind direction | speed MPH | gust MPH | rain 1hr in | rain 24hr in | rain mn in | humidity % | barometer mb |
| 20260504000245 | 55 | 266 | 7.0 | 11.0 | 0.00 | 0.00 | 0.00 | 35 | 1012.9 |
| 20260503235739 | 56 | 261 | 8.0 | 12.0 | 0.00 | 0.00 | 0.00 | 34 | 1013.0 |
| 20260503235010 | 56 | 270 | 8.0 | 12.0 | 0.00 | 0.00 | 0.00 | 33 | 1012.9 |
| 20260503234505 | 56 | 273 | 8.0 | 12.0 | 0.00 | 0.00 | 0.00 | 34 | 1012.9 |
| 20260503233958 | 57 | 265 | 8.0 | 12.0 | 0.00 | 0.00 | 0.00 | 33 | 1012.9 |
| 20260503233452 | 57 | 258 | 9.0 | 14.0 | 0.00 | 0.00 | 0.00 | 33 | 1012.6 |
| 20260503232947 | 57 | 279 | 9.0 | 14.0 | 0.00 | 0.00 | 0.00 | 32 | 1012.6 |
| 20260503232708 | 57 | 45 | 11.0 | 16.0 | 0.00 | 0.00 | 0.00 | 32 | 1012.8 |
| 20260503231935 | 58 | 247 | 12.0 | 17.0 | 0.00 | 0.00 | 0.00 | 31 | 1012.6 |
| 20260503231429 | 58 | 269 | 12.0 | 17.0 | 0.00 | 0.00 | 0.00 | 31 | 1012.5 |
| 20260503230922 | 58 | 245 | 9.0 | 17.0 | 0.00 | 0.00 | 0.00 | 30 | 1012.4 |
| 20260503230417 | 58 | 231 | 8.0 | 13.0 | 0.00 | 0.00 | 0.00 | 34 | 1012.5 |
| 20260503230401 | 58 | 224 | 9.0 | 14.0 | 0.00 | 0.00 | 0.00 | 30 | 1012.5 |
| 20260503225622 | 59 | 231 | 11.0 | 17.0 | 0.00 | 0.00 | 0.00 | 29 | 1012.4 |
| 20260503224859 | 59 | 277 | 12.0 | 17.0 | 0.00 | 0.00 | 0.00 | 29 | 1012.4 |
| 20260503224352 | 59 | 270 | 12.0 | 21.0 | 0.00 | 0.00 | 0.00 | 29 | 1012.4 |
| 20260503223847 | 60 | 45 | 11.0 | 21.0 | 0.00 | 0.00 | 0.00 | 29 | 1012.4 |
| 20260503223341 | 60 | 331 | 10.0 | 15.0 | 0.00 | 0.00 | 0.00 | 29 | 1012.3 |
| 20260503222838 | 59 | 45 | 9.0 | 18.0 | 0.00 | 0.00 | 0.00 | 30 | 1012.5 |
| 20260503222338 | 59 | 246 | 10.0 | 18.0 | 0.00 | 0.00 | 0.00 | 29 | 1012.5 |
| 20260503221839 | 59 | 250 | 10.0 | 18.0 | 0.00 | 0.00 | 0.00 | 31 | 1012.5 |
| 20260503221603 | 59 | 256 | 10.0 | 18.0 | 0.00 | 0.00 | 0.00 | 31 | 1012.5 |
| 20260503220839 | 59 | 276 | 10.0 | 21.0 | 0.00 | 0.00 | 0.00 | 29 | 1012.6 |
| 20260503220555 | 59 | 222 | 9.0 | 21.0 | 0.00 | 0.00 | 0.00 | 28 | 1012.6 |
| 20260503215839 | 59 | 264 | 10.0 | 19.0 | 0.00 | 0.00 | 0.00 | 29 | 1012.6 |
| 20260503215339 | 59 | 251 | 13.0 | 20.0 | 0.00 | 0.00 | 0.00 | 29 | 1012.5 |
| 20260503214839 | 60 | 269 | 10.0 | 20.0 | 0.00 | 0.00 | 0.00 | 29 | 1012.5 |
| 20260503214339 | 60 | 45 | 5.0 | 10.0 | 0.00 | 0.00 | 0.00 | 30 | 1012.5 |
| 20260503213839 | 59 | 273 | 5.0 | 12.0 | 0.00 | 0.00 | 0.00 | 34 | 1012.5 |
| 20260503213552 | 59 | 220 | 9.0 | 19.0 | 0.00 | 0.00 | 0.00 | 29 | 1012.6 |
| 20260503213432 | 59 | 206 | 6.0 | 12.0 | 0.00 | 0.00 | 0.00 | 30 | 1012.5 |
| 20260503212339 | 59 | 326 | 10.0 | 19.0 | 0.00 | 0.00 | 0.00 | 30 | 1012.8 |
| 20260503211839 | 59 | 261 | 9.0 | 16.0 | 0.00 | 0.00 | 0.00 | 32 | 1012.5 |
| 20260503211339 | 59 | 224 | 12.0 | 20.0 | 0.00 | 0.00 | 0.00 | 30 | 1012.8 |
| 20260503210839 | 59 | 45 | 13.0 | 20.0 | 0.00 | 0.00 | 0.00 | 32 | 1012.8 |
| 20260503210332 | 60 | 256 | 9.0 | 18.0 | 0.00 | 0.00 | 0.00 | 31 | 1012.9 |
| 20260503210047 | 60 | 273 | 9.0 | 17.0 | 0.00 | 0.00 | 0.00 | 29 | 1012.8 |
| 20260503205320 | 59 | 45 | 11.0 | 17.0 | 0.00 | 0.00 | 0.00 | 28 | 1013.0 |
| 20260503204815 | 59 | 256 | 11.0 | 19.0 | 0.00 | 0.00 | 0.00 | 29 | 1012.9 |
| 20260503204308 | 60 | 243 | 11.0 | 19.0 | 0.00 | 0.00 | 0.00 | 28 | 1012.9 |
| 20260503203802 | 60 | 308 | 10.0 | 18.0 | 0.00 | 0.00 | 0.00 | 28 | 1012.9 |
| 20260503203257 | 60 | 256 | 11.0 | 19.0 | 0.00 | 0.00 | 0.00 | 29 | 1013.0 |
| 20260503202750 | 60 | 326 | 15.0 | 26.0 | 0.00 | 0.00 | 0.00 | 27 | 1013.2 |
| 20260503202245 | 60 | 308 | 14.0 | 26.0 | 0.00 | 0.00 | 0.00 | 29 | 1013.1 |
| 20260503201745 | 60 | 255 | 10.0 | 19.0 | 0.00 | 0.00 | 0.00 | 27 | 1013.1 |
| 20260503201244 | 59 | 320 | 10.0 | 23.0 | 0.00 | 0.00 | 0.00 | 28 | 1013.2 |
| 20260503201008 | 61 | 237 | 10.0 | 23.0 | 0.00 | 0.00 | 0.00 | 29 | 1013.2 |
| 20260503200245 | 61 | 329 | 11.0 | 19.0 | 0.00 | 0.00 | 0.00 | 28 | 1013.3 |
| 20260503195744 | 60 | 45 | 12.0 | 19.0 | 0.00 | 0.00 | 0.00 | 28 | 1013.4 |
| 20260503195244 | 59 | 328 | 13.0 | 28.0 | 0.00 | 0.00 | 0.00 | 30 | 1013.4 |
| 20260503194744 | 58 | 45 | 16.0 | 28.0 | 0.00 | 0.00 | 0.00 | 30 | 1013.5 |
| 20260503194244 | 58 | 274 | 17.0 | 27.0 | 0.00 | 0.00 | 0.00 | 30 | 1013.5 |
| 20260503193744 | 58 | 264 | 16.0 | 27.0 | 0.00 | 0.00 | 0.00 | 30 | 1013.6 |
| 20260503193242 | 58 | 279 | 14.0 | 27.0 | 0.00 | 0.00 | 0.00 | 30 | 1013.7 |
| 20260503192742 | 58 | 256 | 12.0 | 27.0 | 0.00 | 0.00 | 0.00 | 30 | 1013.6 |
| 20260503192243 | 57 | 272 | 13.0 | 24.0 | 0.00 | 0.00 | 0.00 | 32 | 1013.7 |
| 20260503192006 | 58 | 250 | 16.0 | 25.0 | 0.00 | 0.00 | 0.00 | 32 | 1013.8 |
| 20260503191242 | 57 | 45 | 16.0 | 25.0 | 0.00 | 0.00 | 0.00 | 33 | 1013.8 |
| 20260503190743 | 57 | 274 | 16.0 | 24.0 | 0.00 | 0.00 | 0.00 | 33 | 1013.8 |
| 20260503190242 | 57 | 270 | 16.0 | 24.0 | 0.00 | 0.00 | 0.00 | 31 | 1013.9 |
| 20260503185743 | 57 | 231 | 15.0 | 25.0 | 0.00 | 0.00 | 0.00 | 36 | 1014.1 |
| 20260503185242 | 57 | 262 | 12.0 | 25.0 | 0.00 | 0.00 | 0.00 | 33 | 1014.2 |
| 20260503184737 | 57 | 276 | 11.0 | 21.0 | 0.00 | 0.00 | 0.00 | 34 | 1014.2 |
| 20260503184230 | 56 | 251 | 13.0 | 21.0 | 0.00 | 0.00 | 0.00 | 38 | 1014.3 |
| 20260503183725 | 56 | 235 | 14.0 | 25.0 | 0.00 | 0.00 | 0.00 | 33 | 1014.3 |
| 20260503183219 | 56 | 241 | 13.0 | 25.0 | 0.00 | 0.00 | 0.00 | 35 | 1014.4 |
| 20260503182718 | 56 | 256 | 12.0 | 22.0 | 0.00 | 0.00 | 0.00 | 37 | 1014.4 |
| 20260503182218 | 56 | 249 | 16.0 | 28.0 | 0.00 | 0.00 | 0.00 | 39 | 1014.6 |
| 20260503181718 | 55 | 263 | 17.0 | 28.0 | 0.00 | 0.00 | 0.00 | 37 | 1014.4 |
| 20260503181217 | 56 | 245 | 15.0 | 25.0 | 0.00 | 0.00 | 0.00 | 36 | 1014.6 |
| 20260503180939 | 57 | 265 | 13.0 | 25.0 | 0.00 | 0.00 | 0.00 | 37 | 1014.6 |
| 20260503180438 | 57 | 45 | 11.0 | 22.0 | 0.00 | 0.00 | 0.00 | 35 | 1014.6 |
| 20260503175717 | 56 | 336 | 10.0 | 16.0 | 0.00 | 0.00 | 0.00 | 36 | 1014.8 |
| 20260503175216 | 54 | 260 | 10.0 | 22.0 | 0.00 | 0.00 | 0.00 | 42 | 1014.8 |
| 20260503174716 | 54 | 245 | 12.0 | 22.0 | 0.00 | 0.00 | 0.00 | 37 | 1014.9 |
| 20260503174216 | 55 | 221 | 12.0 | 22.0 | 0.00 | 0.00 | 0.00 | 43 | 1014.8 |
| 20260503173716 | 55 | 258 | 13.0 | 20.0 | 0.00 | 0.00 | 0.00 | 40 | 1014.7 |
| 20260503173216 | 54 | 263 | 12.0 | 21.0 | 0.00 | 0.00 | 0.00 | 38 | 1014.8 |
| 20260503173205 | 54 | 272 | 9.0 | 21.0 | 0.00 | 0.00 | 0.00 | 38 | 1014.9 |
| 20260503172216 | 53 | 275 | 6.0 | 16.0 | 0.00 | 0.00 | 0.00 | 39 | 1014.9 |
| 20260503171716 | 53 | 266 | 5.0 | 16.0 | 0.00 | 0.00 | 0.00 | 47 | 1015.0 |
| 20260503171215 | 52 | 225 | 10.0 | 18.0 | 0.00 | 0.00 | 0.00 | 44 | 1015.1 |
| 20260503170929 | 52 | 265 | 8.0 | 18.0 | 0.00 | 0.00 | 0.00 | 39 | 1015.1 |
| 20260503170426 | 51 | 253 | 4.0 | 13.0 | 0.00 | 0.00 | 0.00 | 42 | 1015.2 |
| 20260503160126 | 52 | 241 | 6.0 | 12.0 | 0.00 | 0.00 | 0.00 | 41 | 1015.9 |
| 20260503150620 | 49 | 335 | 7.0 | 15.0 | 0.00 | 0.00 | 0.00 | 42 | 1016.5 |
| 20260503150119 | 48 | 19 | 8.0 | 15.0 | 0.00 | 0.00 | 0.00 | 44 | 1016.5 |
| 20260503131323 | 42 | 45 | 4.0 | 11.0 | 0.00 | 0.00 | 0.00 | 54 | 1016.1 |
| 20260503130555 | 42 | 346 | 4.0 | 9.0 | 0.00 | 0.00 | 0.00 | 53 | 1016.1 |
| 20260503110459 | 36 | 12 | 1.0 | 3.0 | 0.00 | 0.00 | 0.00 | 64 | 1015.2 |
| 20260503090234 | 38 | 344 | 2.0 | 13.0 | 0.00 | 0.00 | 0.00 | 61 | 1013.5 |
| 20260503081357 | 37 | 329 | 1.0 | 2.0 | 0.00 | 0.00 | 0.00 | 70 | 1013.0 |
| 20260503080628 | 37 | 329 | 1.0 | 3.0 | 0.00 | 0.00 | 0.00 | 70 | 1012.9 |
| 20260503080123 | 37 | 329 | 1.0 | 3.0 | 0.00 | 0.00 | 0.00 | 70 | 1012.9 |
| 20260503072614 | 39 | 329 | 4.0 | 9.0 | 0.00 | 0.00 | 0.00 | 63 | 1012.8 |
| 20260503072114 | 38 | 332 | 4.0 | 12.0 | 0.00 | 0.00 | 0.00 | 64 | 1012.6 |
| 20260503071614 | 39 | 334 | 5.0 | 12.0 | 0.00 | 0.00 | 0.00 | 64 | 1012.6 |
| 20260503071337 | 39 | 331 | 2.0 | 11.0 | 0.00 | 0.00 | 0.00 | 62 | 1012.4 |
| 20260503070615 | 39 | 347 | 0.0 | 7.0 | 0.00 | 0.00 | 0.00 | 65 | 1012.5 |
| 20260503070114 | 39 | 350 | 0.0 | 1.0 | 0.00 | 0.00 | 0.00 | 65 | 1012.5 |
| 20260503060112 | 40 | 350 | 0.0 | 3.0 | 0.00 | 0.00 | 0.00 | 60 | 1012.5 |
| 20260503055113 | 40 | 349 | 2.0 | 4.0 | 0.00 | 0.00 | 0.00 | 60 | 1012.5 |
| 20260503054613 | 41 | 350 | 2.0 | 4.0 | 0.00 | 0.00 | 0.00 | 60 | 1012.5 |
| 20260503054110 | 41 | 349 | 2.0 | 4.0 | 0.00 | 0.00 | 0.00 | 59 | 1012.6 |
| 20260503053610 | 41 | 349 | 2.0 | 4.0 | 0.00 | 0.00 | 0.00 | 59 | 1012.6 |
| 20260503053342 | 41 | 349 | 2.0 | 4.0 | 0.00 | 0.00 | 0.00 | 59 | 1012.6 |
| 20260503052608 | 41 | 349 | 1.0 | 5.0 | 0.00 | 0.00 | 0.00 | 59 | 1012.5 |
| 20260503052330 | 41 | 349 | 1.0 | 5.0 | 0.00 | 0.00 | 0.00 | 59 | 1012.5 |
| 20260503051608 | 41 | 348 | 1.0 | 3.0 | 0.00 | 0.00 | 0.00 | 58 | 1012.4 |
| 20260503051106 | 41 | 348 | 1.0 | 4.0 | 0.00 | 0.00 | 0.00 | 59 | 1012.4 |
| 20260503050606 | 41 | 348 | 2.0 | 5.0 | 0.00 | 0.00 | 0.00 | 58 | 1012.4 |
| 20260503050326 | 41 | 348 | 2.0 | 5.0 | 0.00 | 0.00 | 0.00 | 59 | 1012.3 |
| 20260503045605 | 41 | 346 | 1.0 | 4.0 | 0.00 | 0.00 | 0.00 | 58 | 1012.3 |
| 20260503045105 | 41 | 346 | 1.0 | 5.0 | 0.00 | 0.00 | 0.00 | 58 | 1012.3 |
| 20260503044559 | 41 | 346 | 0.0 | 5.0 | 0.00 | 0.00 | 0.00 | 57 | 1012.4 |
| 20260503044319 | 41 | 318 | 0.0 | 4.0 | 0.00 | 0.00 | 0.00 | 57 | 1012.3 |
| 20260503043547 | 42 | 318 | 1.0 | 4.0 | 0.00 | 0.00 | 0.00 | 57 | 1012.3 |
| 20260503043041 | 42 | 318 | 1.0 | 6.0 | 0.00 | 0.00 | 0.00 | 57 | 1012.3 |
| 20260503042535 | 42 | 318 | 1.0 | 6.0 | 0.00 | 0.00 | 0.00 | 56 | 1012.3 |
| 20260503042510 | 42 | 318 | 0.0 | 3.0 | 0.00 | 0.00 | 0.00 | 57 | 1012.3 |
| 20260503041742 | 42 | 318 | 1.0 | 6.0 | 0.00 | 0.00 | 0.00 | 56 | 1012.4 |
| 20260503041016 | 42 | 318 | 2.0 | 6.0 | 0.00 | 0.00 | 0.00 | 55 | 1012.3 |
| 20260503040511 | 42 | 317 | 2.0 | 6.0 | 0.00 | 0.00 | 0.00 | 55 | 1012.3 |
| 20260503040005 | 42 | 317 | 2.0 | 4.0 | 0.00 | 0.00 | 0.00 | 55 | 1012.3 |
| 20260503035500 | 42 | 317 | 1.0 | 4.0 | 0.00 | 0.00 | 0.00 | 55 | 1012.3 |
| 20260503034954 | 42 | 317 | 2.0 | 4.0 | 0.00 | 0.00 | 0.00 | 55 | 1012.3 |
| 20260503034449 | 42 | 316 | 1.0 | 3.0 | 0.00 | 0.00 | 0.00 | 54 | 1012.4 |
| 20260503033948 | 42 | 317 | 1.0 | 3.0 | 0.00 | 0.00 | 0.00 | 54 | 1012.3 |
| 20260503033447 | 43 | 317 | 1.0 | 0.0 | 0.00 | 0.00 | 0.00 | 54 | 1012.2 |
| 20260503032922 | 43 | 317 | 1.0 | 4.0 | 0.00 | 0.00 | 0.00 | 53 | 1012.2 |
| 20260503032416 | 43 | 317 | 1.0 | 3.0 | 0.00 | 0.00 | 0.00 | 53 | 1012.2 |
| 20260503031910 | 43 | 317 | 1.0 | 3.0 | 0.00 | 0.00 | 0.00 | 53 | 1012.2 |
| 20260503031403 | 43 | 317 | 1.0 | 3.0 | 0.00 | 0.00 | 0.00 | 52 | 1012.1 |
| 20260503030858 | 43 | 316 | 1.0 | 3.0 | 0.00 | 0.00 | 0.00 | 52 | 1012.1 |
| 20260503030352 | 43 | 316 | 0.0 | 3.0 | 0.00 | 0.00 | 0.00 | 51 | 1012.2 |
| 20260503025852 | 43 | 316 | 0.0 | 2.0 | 0.00 | 0.00 | 0.00 | 51 | 1012.2 |
| 20260503025613 | 44 | 316 | 1.0 | 7.0 | 0.00 | 0.00 | 0.00 | 51 | 1012.1 |
| 20260503024847 | 44 | 316 | 2.0 | 7.0 | 0.00 | 0.00 | 0.00 | 51 | 1012.1 |
| 20260503024604 | 44 | 316 | 1.0 | 6.0 | 0.00 | 0.00 | 0.00 | 51 | 1012.1 |
| 20260503023846 | 44 | 316 | 1.0 | 4.0 | 0.00 | 0.00 | 0.00 | 50 | 1012.2 |
| 20260503023346 | 44 | 316 | 1.0 | 4.0 | 0.00 | 0.00 | 0.00 | 50 | 1012.1 |
| 20260503022846 | 44 | 316 | 1.0 | 6.0 | 0.00 | 0.00 | 0.00 | 50 | 1012.2 |
| 20260503022346 | 44 | 316 | 1.0 | 6.0 | 0.00 | 0.00 | 0.00 | 49 | 1012.2 |
| 20260503021844 | 44 | 316 | 2.0 | 4.0 | 0.00 | 0.00 | 0.00 | 49 | 1012.1 |
| 20260503021343 | 44 | 315 | 2.0 | 7.0 | 0.00 | 0.00 | 0.00 | 50 | 1012.1 |
| 20260503020844 | 45 | 315 | 3.0 | 8.0 | 0.00 | 0.00 | 0.00 | 50 | 1012.1 |
| 20260503020344 | 45 | 312 | 2.0 | 8.0 | 0.00 | 0.00 | 0.00 | 49 | 1012.0 |
| 20260503015844 | 45 | 316 | 2.0 | 4.0 | 0.00 | 0.00 | 0.00 | 48 | 1012.1 |
| 20260503015604 | 45 | 316 | 2.0 | 6.0 | 0.00 | 0.00 | 0.00 | 48 | 1012.1 |
| 20260503014843 | 45 | 316 | 3.0 | 4.0 | 0.00 | 0.00 | 0.00 | 47 | 1012.1 |
| 20260503014047 | 46 | 45 | 4.0 | 11.0 | 0.00 | 0.00 | 0.00 | 48 | 1011.9 |
| 20260503013548 | 46 | 45 | 5.0 | 11.0 | 0.00 | 0.00 | 0.00 | 47 | 1011.9 |
| 20260503013047 | 46 | 327 | 4.0 | 11.0 | 0.00 | 0.00 | 0.00 | 47 | 1012.0 |
| 20260503012547 | 46 | 347 | 4.0 | 10.0 | 0.00 | 0.00 | 0.00 | 47 | 1011.9 |
| 20260503012047 | 46 | 335 | 4.0 | 9.0 | 0.00 | 0.00 | 0.00 | 48 | 1011.9 |
| 20260503011548 | 46 | 326 | 3.0 | 7.0 | 0.00 | 0.00 | 0.00 | 47 | 1011.9 |
| 20260503011048 | 46 | 327 | 2.0 | 7.0 | 0.00 | 0.00 | 0.00 | 47 | 1011.9 |
| 20260503010547 | 47 | 328 | 3.0 | 10.0 | 0.00 | 0.00 | 0.00 | 46 | 1011.9 |
| 20260503010047 | 47 | 331 | 5.0 | 12.0 | 0.00 | 0.00 | 0.00 | 45 | 1011.8 |
| 20260503005548 | 47 | 324 | 7.0 | 14.0 | 0.00 | 0.00 | 0.00 | 45 | 1011.7 |
| 20260503005047 | 47 | 313 | 7.0 | 14.0 | 0.00 | 0.00 | 0.00 | 45 | 1011.7 |
| 20260503004540 | 47 | 313 | 6.0 | 12.0 | 0.00 | 0.00 | 0.00 | 44 | 1011.6 |
| 20260503004035 | 48 | 45 | 4.0 | 11.0 | 0.00 | 0.00 | 0.00 | 46 | 1011.5 |
| 20260503003532 | 48 | 45 | 5.0 | 12.0 | 0.00 | 0.00 | 0.00 | 46 | 1011.4 |
| 20260503003032 | 48 | 45 | 8.0 | 14.0 | 0.00 | 0.00 | 0.00 | 44 | 1011.3 |
| 20260503002530 | 48 | 311 | 7.0 | 14.0 | 0.00 | 0.00 | 0.00 | 44 | 1011.3 |
| 20260503002029 | 49 | 45 | 6.0 | 11.0 | 0.00 | 0.00 | 0.00 | 45 | 1011.2 |
| 20260503001749 | 49 | 45 | 7.0 | 11.0 | 0.00 | 0.00 | 0.00 | 44 | 1011.1 |
| 20260503001027 | 49 | 278 | 7.0 | 11.0 | 0.00 | 0.00 | 0.00 | 44 | 1011.1 |
| 20260503000527 | 49 | 314 | 7.0 | 11.0 | 0.00 | 0.00 | 0.00 | 43 | 1011.0 |